Вернуться в каталог

STARLINK-35680

АктивенСвязьVLEO
NORAD 66610·PAYLOAD·🇺🇸 United States

Запущен Nov 22, 2025 с Cape Canaveral Space Force Station

Loading…

Ближайшие Пролёты (ближайшие 24 часа)

TLE

СвежийSource: CelesTrak SupGP

Эпоха: Sep 15, 2026, 04:10 UTC

1 66610C 25270Y   26258.17409722 -.00025174  00000+0 -91161-3 0  2589
2 66610  43.0007  66.0769 0001504 265.2823 141.6852 15.27597229    14

Отслеживайте STARLINK-35680 в реальном времени с AllMySat

Download on the App Store